Weather History for KSTK - December, 2012

Change the Weather History Date:

Sunday, December 9, 2012

  Actual Average (KAKO) Record (KAKO)
Temperature  
Mean Temperature 14 °F 28 °F  
Max Temperature 26 °F 40 °F 68 °F (1939)
Min Temperature 1 °F 17 °F -19 °F (1972)
Degree Days  
Heating Degree Days 52    
Month to date heating degree days  
Cooling Degree Days 0    
Month to date cooling degree days  
Moisture  
Dew Point 3 °F    
Average Humidity 57    
Maximum Humidity 78    
Minimum Humidity 37    
Precipitation  
Precipitation 0.00 in 0.02 in 0.22 in (1944)
Month to date precipitation 0.16  
Year to date precipitation 16.50  
Sea Level Pressure  
Sea Level Pressure 30.11 in    
Wind  
Wind Speed 15 mph ()    
Max Wind Speed 25 mph    
Max Gust Speed 32 mph    
Visibility 10.0 miles    
Events      
T = Trace of Precipitation, MM = Missing Value Source: Averaged Metar Reports

Daily Weather History Graph

Daily Weather History Graph

Search for Another Location

Airport or City:

Trip Planner

Search our weather history database for the weather conditions in past years. The results will help you decide how hot, cold, wet, or windy it might be!

Date:

Astronomy

Dec. 09, 2012 Rise Set
Actual Time 7:05 AM MST 4:25 PM MST
Civil Twilight 6:34 AM MST 4:56 PM MST
Nautical Twilight 6:00 AM MST 5:30 PM MST
Astronomical Twilight 5:27 AM MST 6:04 PM MST
Moon 2:40 AM MST (12/9) 1:34 PM MST (12/9)
Length of Visible Light 10h 21m
Length of Day
9h 20m
Waning Crescent, 18% of the Moon is Illuminated
Dec 9
Waning Crescent
Dec 13
New
Dec 19
First Quarter
Dec 28
Full
Jan 4
Last Quarter

Hourly Weather History & Observations

Time (MST) Temp. Windchill Dew Point Humidity Pressure Visibility Wind Dir Wind Speed Gust Speed Precip Events Conditions
12:10 AM 23.0 °F 9.6 °F 10.4 °F 59% 29.93 in 10.0 mi North 16.1 mph 26.5 mph N/A   Overcast
12:30 AM 23.0 °F 8.3 °F 10.4 °F 59% 29.94 in 10.0 mi NNW 19.6 mph 27.6 mph N/A   Overcast
12:50 AM 23.0 °F 9.2 °F 10.4 °F 59% 29.94 in 10.0 mi NNW 17.3 mph - N/A   Overcast
1:10 AM 23.0 °F 8.0 °F 10.4 °F 59% 29.95 in 10.0 mi NNW 20.7 mph 27.6 mph N/A   Overcast
1:30 AM 23.0 °F 6.9 °F 8.6 °F 54% 29.95 in 10.0 mi NNW 24.2 mph 29.9 mph N/A   Overcast
1:50 AM 21.2 °F 4.2 °F 8.6 °F 58% 29.95 in 10.0 mi NNW 25.3 mph 32.2 mph N/A   Overcast
2:10 AM 21.2 °F 4.9 °F 8.6 °F 58% 29.96 in 10.0 mi NNW 23.0 mph 28.8 mph N/A   Overcast
2:30 AM 21.2 °F 4.5 °F 8.6 °F 58% 29.96 in 10.0 mi NNW 24.2 mph 29.9 mph N/A   Overcast
2:50 AM 21.2 °F 5.6 °F 8.6 °F 58% 29.97 in 10.0 mi NNW 20.7 mph 25.3 mph N/A   Overcast
3:10 AM 19.4 °F 4.5 °F 8.6 °F 63% 29.98 in 10.0 mi NNW 17.3 mph 27.6 mph N/A   Mostly Cloudy
3:30 AM 19.4 °F 5.5 °F 8.6 °F 63% 29.99 in 10.0 mi North 15.0 mph - N/A   Mostly Cloudy
3:50 AM 19.4 °F 6.0 °F 8.6 °F 63% 30.01 in 10.0 mi North 13.8 mph - N/A   Scattered Clouds
4:10 AM 19.4 °F 5.0 °F 8.6 °F 63% 30.02 in 10.0 mi North 16.1 mph 23.0 mph N/A   Scattered Clouds
4:30 AM 19.4 °F 5.0 °F 8.6 °F 63% 30.02 in 10.0 mi North 16.1 mph 24.2 mph N/A   Clear
4:50 AM 19.4 °F 5.5 °F 8.6 °F 63% 30.03 in 10.0 mi North 15.0 mph 20.7 mph N/A   Clear
5:10 AM 17.6 °F 1.3 °F 6.8 °F 63% 30.04 in 10.0 mi North 19.6 mph 24.2 mph N/A   Clear
5:30 AM 17.6 °F 3.2 °F 6.8 °F 63% 30.06 in 10.0 mi North 15.0 mph 20.7 mph N/A   Clear
5:50 AM 15.8 °F 0.3 °F 5.0 °F 62% 30.07 in 10.0 mi North 16.1 mph - N/A   Clear
6:10 AM 15.8 °F 0.3 °F 5.0 °F 62% 30.08 in 10.0 mi North 16.1 mph 20.7 mph N/A   Clear
6:30 AM 15.8 °F 0.9 °F 5.0 °F 62% 30.09 in 10.0 mi North 15.0 mph 23.0 mph N/A   Clear
6:50 AM 15.8 °F 2.7 °F 5.0 °F 62% 30.11 in 10.0 mi North 11.5 mph 23.0 mph N/A   Scattered Clouds
7:10 AM 15.8 °F -0.2 °F 5.0 °F 62% 30.11 in 10.0 mi North 17.3 mph 25.3 mph N/A   Clear
7:30 AM 15.8 °F -0.2 °F 5.0 °F 62% 30.11 in 10.0 mi North 17.3 mph 25.3 mph N/A   Clear
7:50 AM 15.8 °F -0.2 °F 5.0 °F 62% 30.12 in 10.0 mi North 17.3 mph 27.6 mph N/A   Clear
8:10 AM 15.8 °F -0.2 °F 5.0 °F 62% 30.13 in 10.0 mi North 17.3 mph 24.2 mph N/A   Clear
8:30 AM 15.8 °F -0.6 °F 5.0 °F 62% 30.14 in 10.0 mi North 18.4 mph 26.5 mph N/A   Clear
8:50 AM 17.6 °F 0.9 °F 5.0 °F 58% 30.15 in 10.0 mi North 20.7 mph 25.3 mph N/A   Clear
9:10 AM 19.4 °F 4.1 °F 5.0 °F 54% 30.16 in 10.0 mi North 18.4 mph 29.9 mph N/A   Clear
9:30 AM 19.4 °F 3.2 °F 5.0 °F 54% 30.18 in 10.0 mi North 20.7 mph 26.5 mph N/A   Clear
9:50 AM 19.4 °F 3.2 °F 5.0 °F 54% 30.20 in 10.0 mi North 20.7 mph 26.5 mph N/A   Clear
10:10 AM 19.4 °F 5.5 °F 5.0 °F 54% 30.20 in 10.0 mi North 15.0 mph 23.0 mph N/A   Clear
10:30 AM 21.2 °F 4.9 °F 5.0 °F 50% 30.18 in 10.0 mi North 23.0 mph 28.8 mph N/A   Clear
10:50 AM 23.0 °F 8.0 °F 5.0 °F 46% 30.17 in 10.0 mi North 20.7 mph 27.6 mph N/A   Clear
11:10 AM 23.0 °F 7.6 °F 5.0 °F 46% 30.15 in 10.0 mi North 21.9 mph 28.8 mph N/A   Clear
11:30 AM 23.0 °F 7.2 °F 5.0 °F 46% 30.15 in 10.0 mi North 23.0 mph 28.8 mph N/A   Clear
11:50 AM 24.8 °F 10.3 °F 5.0 °F 43% 30.15 in 10.0 mi North 20.7 mph 28.8 mph N/A   Clear
12:10 PM 26.6 °F 12.4 °F 5.0 °F 40% 30.15 in 10.0 mi North 21.9 mph 27.6 mph N/A   Clear
12:30 PM 24.8 °F 10.7 °F 3.2 °F 40% 30.16 in 10.0 mi North 19.6 mph 26.5 mph N/A   Clear
12:50 PM 26.6 °F 12.4 °F 3.2 °F 37% 30.15 in 10.0 mi North 21.9 mph 25.3 mph N/A   Clear
1:10 PM 26.6 °F 11.7 °F 3.2 °F 37% 30.15 in 10.0 mi North 24.2 mph 29.9 mph N/A   Clear
1:30 PM 26.6 °F 12.7 °F 3.2 °F 37% 30.15 in 10.0 mi North 20.7 mph 26.5 mph N/A   Clear
1:50 PM 26.6 °F 12.4 °F 3.2 °F 37% 30.15 in 10.0 mi North 21.9 mph 25.3 mph N/A   Clear
2:10 PM 26.6 °F 13.8 °F 3.2 °F 37% 30.16 in 10.0 mi North 17.3 mph 26.5 mph N/A   Clear
2:30 PM 26.6 °F 13.1 °F 3.2 °F 37% 30.16 in 10.0 mi North 19.6 mph 26.5 mph N/A   Clear
2:50 PM 26.6 °F 14.3 °F 3.2 °F 37% 30.17 in 10.0 mi North 16.1 mph 21.9 mph N/A   Clear
3:10 PM 23.0 °F 8.7 °F 1.4 °F 39% 30.18 in 10.0 mi North 18.4 mph 23.0 mph N/A   Clear
3:30 PM 23.0 °F 10.6 °F 1.4 °F 39% 30.18 in 10.0 mi North 13.8 mph - N/A   Clear
3:50 PM 23.0 °F 10.6 °F 1.4 °F 39% 30.19 in 10.0 mi North 13.8 mph - N/A   Clear
4:10 PM 21.2 °F 9.5 °F 1.4 °F 42% 30.20 in 10.0 mi North 11.5 mph - N/A   Clear
4:30 PM 19.4 °F 9.5 °F 1.4 °F 46% 30.20 in 10.0 mi North 8.1 mph - N/A   Clear
4:50 PM 15.8 °F 5.1 °F 1.4 °F 53% 30.20 in 10.0 mi North 8.1 mph - N/A   Clear
5:10 PM 14.0 °F 6.5 °F -0.4 °F 53% 30.21 in 10.0 mi NNW 4.6 mph - N/A   Clear
5:30 PM 14.0 °F 8.2 °F -0.4 °F 53% 30.20 in 10.0 mi NNW 3.5 mph - N/A   Clear
5:50 PM 10.4 °F 0.8 °F -2.2 °F 57% 30.21 in 10.0 mi WNW 5.8 mph - N/A   Clear
6:10 PM 8.6 °F -1.3 °F -4.0 °F 57% 30.21 in 10.0 mi WNW 5.8 mph - N/A   Clear
6:30 PM 8.6 °F -1.3 °F -0.4 °F 67% 30.20 in 10.0 mi NNW 5.8 mph - N/A   Clear
6:50 PM 8.6 °F -2.6 °F -2.2 °F 62% 30.20 in 10.0 mi NNW 6.9 mph - N/A   Clear
7:10 PM 8.6 °F -1.3 °F -2.2 °F 62% 30.20 in 10.0 mi NW 5.8 mph - N/A   Clear
7:30 PM 8.6 °F - -2.2 °F 62% 30.19 in 10.0 mi Calm Calm - N/A   Clear
7:50 PM 8.6 °F -2.6 °F -2.2 °F 62% 30.18 in 10.0 mi West 6.9 mph - N/A   Clear
8:10 PM 3.2 °F - -4.0 °F 72% 30.17 in 10.0 mi Calm Calm - N/A   Clear
8:30 PM 8.6 °F - 1.4 °F 73% 30.15 in 10.0 mi Calm Calm - N/A   Clear
8:50 PM 1.4 °F -12.5 °F -4.0 °F 78% 30.16 in 10.0 mi WSW 8.1 mph - N/A   Clear
9:10 PM 5.0 °F -9.1 °F -0.4 °F 78% 30.15 in 10.0 mi WSW 9.2 mph - N/A   Clear
9:30 PM 5.0 °F -4.1 °F -2.2 °F 72% 30.14 in 10.0 mi WSW 4.6 mph - N/A   Clear
9:50 PM 3.2 °F -7.8 °F -4.0 °F 72% 30.14 in 10.0 mi SW 5.8 mph - N/A   Clear
10:10 PM 3.2 °F -10.3 °F -4.0 °F 72% 30.13 in 10.0 mi WSW 8.1 mph - N/A   Clear
10:30 PM 3.2 °F - -2.2 °F 78% 30.12 in 10.0 mi Calm Calm - N/A   Clear
10:50 PM 3.2 °F -7.8 °F -4.0 °F 72% 30.11 in 10.0 mi South 5.8 mph - N/A   Clear
11:10 PM 3.2 °F -6.2 °F -4.0 °F 72% 30.10 in 10.0 mi South 4.6 mph - N/A   Clear
11:30 PM 3.2 °F -9.1 °F -4.0 °F 72% 30.08 in 10.0 mi South 6.9 mph - N/A   Clear
11:50 PM 1.4 °F -9.9 °F -4.0 °F 78% 30.08 in 10.0 mi South 5.8 mph - N/A   Clear